Regional Weather Roundup
Issued by NWS

Home | Current Version | Previous Version | Text Only | Print | Product List | Glossary On
Versions: 1 2 3 4 5 6 7 8 9 10 11 12 13 14 15 16 17 18 19 20 21 22 23 24 25 26 27 28 29 30 31 32 33 34 35 36 37 38 39 40 41 42 43 44 45 46 47 48 49 50
000
ASPQ40 PGUM 240112
RWRPQ
WEATHER ROUNDUP FOR THE MARIANAS AND MICRONESIA
NATIONAL WEATHER SERVICE TIYAN GU
1100 AM CHST SAT FEB 24 2018

GUZ001>004-240200-
MARIANA ISLANDS-

CITY           SKY/WX    TMP DP  RH WIND       PRES   REMARKS
GUAM AIRPORT   MOSUNNY   84  75  74 E17G28    29.96F HX  92
ANDERSEN AFB   PTSUNNY   84  73  70 E18       29.97F HX  91
ROTA AIRPORT   PTSUNNY   82  73  74 E16G22    29.97F
TINIAN AP      MOSUNNY   82  77  83 E18       29.96F HX  91
SAIPAN AP      MOSUNNY   86  75  70 E20       29.97F HX  95

$$

PMZ161-240200-
REPUBLIC OF PALAU-

CITY           SKY/WX    TMP DP  RH WIND       PRES   REMARKS
KOROR AP       PTSUNNY   86  77  74 E13G20    29.86S HX  97
KOROR WSO      PTSUNNY   88  79  74 E7        29.86S HX 102

$$

PMZ171>174-240200-
FEDERATED STATES OF MICRONESIA-

CITY           SKY/WX    TMP DP  RH WIND       PRES   REMARKS
YAP AIRPORT    PTSUNNY   86  82  89 E10       29.90R HX 105
CHUUK AP       MOSUNNY   86  75  70 NE12      29.86F HX  95
POHNPEI AP     CLOUDY    88  77  70 NE17G23   29.85F HX 100
POHNPEI WSO    PTSUNNY   86  77  74 NE10      29.89  HX  97
KOSRAE AP      PTSUNNY   88  77  70 NE17      29.81F HX 100

$$

PMZ181-240200-
REPUBLIC OF THE MARSHALL ISLANDS-

CITY           SKY/WX    TMP DP  RH WIND       PRES   REMARKS
KWAJALEIN AP   PTSUNNY   84  75  74 E18       29.85F HX  92
MAJURO AP      NOT AVBL
MAJURO WSO     PTSUNNY   82  73  74 E16       29.80F

$$




USA.gov is the U.S. government's official web portal to all federal, state and local government web resources and services.